Huntingburg, IN

5:49 AM EDT on June 24, 2017 (GMT -0400)
Huntingburg

Weather History for KHNB - April, 2014

Change the Weather History Date:

Wednesday, April 23, 2014

  Actual Average Record
Temperature  
Mean Temperature 52 °F -  
Max Temperature 62 °F 65 °F 82 °F (2008)
Min Temperature 41 °F 46 °F 33 °F (2003)
Degree Days  
Heating Degree Days 14    
Growing Degree Days 2 (Base 50)    
Moisture  
Dew Point 33 °F    
Average Humidity 48    
Maximum Humidity 66    
Minimum Humidity 32    
Precipitation  
Precipitation 0.04 in - - ()
Sea Level Pressure  
Sea Level Pressure 30.06 in    
Wind  
Wind Speed 6 mph (ENE)    
Max Wind Speed 13 mph    
Max Gust Speed -    
Visibility 10 miles    
Events      
Averages and records for this station are not official NWS values.
T = Trace of Precipitation, MM = Missing Value Source: NWS Daily Summary

Daily Weather History Graph

Daily Weather History Graph

Search for Another Location

Airport or City:

Trip Planner

Search our weather history database for the weather conditions in past years. The results will help you decide how hot, cold, wet, or windy it might be!

Date:

Astronomy

Apr. 23, 2014 Rise Set
Actual Time 7:01 AM EDT 8:31 PM EDT
Civil Twilight 6:33 AM EDT 8:59 PM EDT
Nautical Twilight 5:59 AM EDT 9:33 PM EDT
Astronomical Twilight 5:24 AM EDT 10:08 PM EDT
Moon 3:27 AM EDT (4/23) 2:44 PM EDT (4/23)
Length of Visible Light 14h 26m
Length of Day
13h 30m
Waning Crescent, 35% of the Moon is Illuminated
Apr 23
Waning Crescent
Apr 29
New
May 6
First Quarter
May 14
Full
May 21
Last Quarter

Hourly Weather History & Observations

Time (EDT) Temp. Windchill Dew Point Humidity Pressure Visibility Wind Dir Wind Speed Gust Speed Precip Events Conditions
12:15 AM 53.6 °F - 35.6 °F 51% 29.98 in 10.0 mi North 3.5 mph - N/A   Clear
12:35 AM 51.8 °F - 35.6 °F 54% 29.98 in 10.0 mi North 4.6 mph - N/A   Clear
12:55 AM 51.8 °F - 35.6 °F 54% 29.99 in 10.0 mi NNE 3.5 mph - N/A   Clear
1:15 AM 48.2 °F - 35.6 °F 62% 29.99 in 10.0 mi NE 3.5 mph - N/A   Clear
1:35 AM 48.2 °F - 35.6 °F 62% 29.99 in 10.0 mi NNE 4.6 mph - N/A   Clear
1:55 AM 48.2 °F - 33.8 °F 58% 30.00 in 10.0 mi ENE 9.2 mph - N/A   Clear
2:15 AM 46.4 °F 42.4 °F 35.6 °F 66% 30.00 in 10.0 mi East 8.1 mph - N/A   Clear
2:35 AM 46.4 °F 41.9 °F 33.8 °F 62% 30.01 in 10.0 mi East 9.2 mph - N/A   Clear
2:55 AM 46.4 °F 42.4 °F 33.8 °F 62% 30.01 in 10.0 mi East 8.1 mph - N/A   Clear
3:15 AM 46.4 °F 42.9 °F 32.0 °F 57% 30.02 in 10.0 mi ENE 6.9 mph - N/A   Clear
3:35 AM 44.6 °F 41.4 °F 32.0 °F 61% 30.02 in 10.0 mi ENE 5.8 mph - N/A   Clear
3:55 AM 44.6 °F 41.4 °F 32.0 °F 61% 30.03 in 10.0 mi ENE 5.8 mph - N/A   Clear
4:15 AM 44.6 °F 40.7 °F 30.2 °F 57% 30.04 in 10.0 mi ENE 6.9 mph - N/A   Clear
4:35 AM 44.6 °F 40.7 °F 30.2 °F 57% 30.04 in 10.0 mi NE 6.9 mph - N/A   Clear
4:55 AM 42.8 °F 38.0 °F 30.2 °F 61% 30.05 in 10.0 mi NE 8.1 mph - N/A   Clear
5:15 AM 42.8 °F 38.6 °F 32.0 °F 66% 30.05 in 10.0 mi NE 6.9 mph - N/A   Clear
5:35 AM 42.8 °F 38.0 °F 30.2 °F 61% 30.06 in 10.0 mi NE 8.1 mph - N/A   Clear
5:55 AM 42.8 °F 38.0 °F 30.2 °F 61% 30.07 in 10.0 mi NE 8.1 mph - N/A   Clear
6:15 AM 42.8 °F 38.6 °F 32.0 °F 66% 30.07 in 10.0 mi NE 6.9 mph - N/A   Clear
6:35 AM 41.0 °F 37.1 °F 30.2 °F 65% 30.08 in 10.0 mi NE 5.8 mph - N/A   Clear
6:55 AM 42.8 °F 40.1 °F 30.2 °F 61% 30.09 in 10.0 mi NNE 4.6 mph - N/A   Clear
7:15 AM 42.8 °F 40.1 °F 30.2 °F 61% 30.10 in 10.0 mi NNE 4.6 mph - N/A   Clear
7:35 AM 42.8 °F 41.1 °F 30.2 °F 61% 30.11 in 10.0 mi NNE 3.5 mph - N/A   Clear
7:55 AM 42.8 °F 39.3 °F 32.0 °F 66% 30.11 in 10.0 mi North 5.8 mph - N/A   Clear
8:15 AM 44.6 °F 40.7 °F 32.0 °F 61% 30.12 in 10.0 mi NE 6.9 mph - N/A   Clear
8:35 AM 46.4 °F 41.1 °F 32.0 °F 57% 30.12 in 10.0 mi NE 11.5 mph - N/A   Clear
8:55 AM 46.4 °F 42.9 °F 30.2 °F 53% 30.13 in 10.0 mi ENE 6.9 mph - N/A   Clear
9:15 AM 46.4 °F 40.7 °F 30.2 °F 53% 30.13 in 10.0 mi NE 12.7 mph - N/A   Clear
9:35 AM 48.2 °F - 30.2 °F 50% 30.13 in 10.0 mi NE 11.5 mph - N/A   Clear
9:55 AM 48.2 °F - 30.2 °F 50% 30.11 in 10.0 mi ENE 11.5 mph - N/A   Clear
10:15 AM 50.0 °F - 30.2 °F 47% 30.13 in 10.0 mi ENE 10.4 mph - N/A   Clear
10:35 AM 51.8 °F - 32.0 °F 47% 30.14 in 10.0 mi ENE 6.9 mph - N/A   Clear
10:55 AM 51.8 °F - 32.0 °F 47% 30.15 in 10.0 mi ENE 8.1 mph - N/A   Clear
11:15 AM 53.6 °F - 32.0 °F 44% 30.15 in 10.0 mi NE 5.8 mph - N/A   Clear
11:35 AM 53.6 °F - 33.8 °F 47% 30.14 in 10.0 mi NW 5.8 mph - N/A   Clear
11:55 AM 53.6 °F - 30.2 °F 41% 30.14 in 10.0 mi East 5.8 mph - N/A   Clear
12:15 PM 55.4 °F - 33.8 °F 44% 30.14 in 10.0 mi NE 6.9 mph - 0.04 in   Clear
12:35 PM 57.2 °F - 33.8 °F 41% 30.12 in 10.0 mi East 6.9 mph - 0.04 in   Clear
1:15 PM 57.2 °F - 33.8 °F 41% 30.11 in 10.0 mi East 8.1 mph - N/A   Clear
1:35 PM 57.2 °F - 33.8 °F 41% 30.11 in 10.0 mi ENE 6.9 mph - N/A   Clear
1:55 PM 57.2 °F - 33.8 °F 41% 30.10 in 10.0 mi ENE 9.2 mph - N/A   Clear
2:15 PM 60.8 °F - 33.8 °F 36% 30.10 in 10.0 mi NNW 3.5 mph - N/A   Clear
2:35 PM 59.0 °F - 33.8 °F 39% 30.09 in 10.0 mi NNW 4.6 mph - N/A   Clear
2:55 PM 60.8 °F - 33.8 °F 36% 30.08 in 10.0 mi East 3.5 mph - N/A   Clear
3:15 PM 60.8 °F - 35.6 °F 39% 30.07 in 10.0 mi NE 4.6 mph - N/A   Clear
3:35 PM 62.6 °F - 33.8 °F 34% 30.07 in 10.0 mi ENE 6.9 mph - N/A   Clear
4:15 PM 62.6 °F - 32.0 °F 32% 30.06 in 10.0 mi Calm Calm - N/A   Clear
4:35 PM 62.6 °F - 33.8 °F 34% 30.05 in 10.0 mi ENE 3.5 mph - N/A   Clear
4:55 PM 62.6 °F - 35.6 °F 37% 30.05 in 9.0 mi SE 9.2 mph - N/A   Clear
5:15 PM 62.6 °F - 33.8 °F 34% 30.04 in 10.0 mi ENE 4.6 mph - N/A   Clear
5:35 PM 62.6 °F - 33.8 °F 34% 30.04 in 10.0 mi North 3.5 mph - N/A   Clear
5:55 PM 62.6 °F - 33.8 °F 34% 30.03 in 10.0 mi NE 4.6 mph - N/A   Clear
6:15 PM 62.6 °F - 35.6 °F 37% 30.03 in 10.0 mi East 4.6 mph - N/A   Clear
6:35 PM 62.6 °F - 33.8 °F 34% 30.03 in 10.0 mi NE 6.9 mph - N/A   Clear
6:55 PM 62.6 °F - 35.6 °F 37% 30.04 in 10.0 mi ESE 4.6 mph - N/A   Clear
7:15 PM 62.6 °F - 33.8 °F 34% 30.04 in 10.0 mi ENE 4.6 mph - N/A   Clear
7:35 PM 60.8 °F - 33.8 °F 36% 30.03 in 10.0 mi ENE 5.8 mph - N/A   Clear
7:55 PM 60.8 °F - 35.6 °F 39% 30.03 in 10.0 mi ENE 4.6 mph - N/A   Clear
8:15 PM 57.2 °F - 33.8 °F 41% 30.04 in 10.0 mi ENE 3.5 mph - N/A   Clear
8:35 PM 57.2 °F - 33.8 °F 41% 30.04 in 10.0 mi North 4.6 mph - N/A   Clear
8:55 PM 55.4 °F - 33.8 °F 44% 30.04 in 10.0 mi NNE 4.6 mph - N/A   Clear
9:15 PM 55.4 °F - 33.8 °F 44% 30.04 in 10.0 mi NE 3.5 mph - N/A   Clear
9:35 PM 55.4 °F - 33.8 °F 44% 30.04 in 10.0 mi East 3.5 mph - N/A   Clear
9:55 PM 55.4 °F - 32.0 °F 41% 30.05 in 10.0 mi East 4.6 mph - N/A   Clear
10:15 PM 55.4 °F - 32.0 °F 41% 30.05 in 10.0 mi East 4.6 mph - N/A   Clear
10:35 PM 53.6 °F - 32.0 °F 44% 30.05 in 10.0 mi East 5.8 mph - N/A   Clear
10:55 PM 53.6 °F - 32.0 °F 44% 30.05 in 10.0 mi ESE 6.9 mph - N/A   Clear
11:15 PM 55.4 °F - 32.0 °F 41% 30.04 in 10.0 mi ESE 9.2 mph - N/A   Clear
11:35 PM 55.4 °F - 30.2 °F 38% 30.03 in 10.0 mi ESE 10.4 mph - N/A   Scattered Clouds
11:55 PM 53.6 °F - 30.2 °F 41% 30.03 in 10.0 mi East 6.9 mph - N/A   Partly Cloudy